Retour au catalogue

STARLINK-36128

ActifCommunicationsVLEO
NORAD 66873·PAYLOAD·🇺🇸 United States

Lancé Dec 2, 2025 depuis Cape Canaveral Space Force Station

Loading…

Prochains Passages (prochaines 24 heures)

TLE

FraisSource: CelesTrak SupGP

Époque: Sep 15, 2026, 03:40 UTC

1 66873C 25281AB  26258.15326389  .00050856  00000+0  18421-2 0  2587
2 66873  43.0022 353.4086 0001490 269.8113  43.2088 15.27551561    10

Suivez STARLINK-36128 en temps réel avec AllMySat

Download on the App Store